This demonstration page uses our WeatherBlox Daily Observations layout. Learn more.

Left ArrowRight Arrow

Hourly Observations for June 1, 2015

Temp ( °F °C ) Dew Point ( °F °C ) Humidity (%) Winds ( mph kmh ) Pressure ( in mb ) Visibility ( mi km ) Precip ( " mm )
12:54 am 00:54 Clear 59 15 45 7.2 60 60 SE 8 13 30.13 1020 10 16.0934 N/A
1:54 am 01:54 Cloudy 59 15 46 7.8 62 62 SE 7 11 30.11 1020 10 16.0934 N/A
2:54 am 02:54 Mostly Cloudy 57 13.9 45 7.2 64 64 N N/A 30.12 1020 10 16.0934 N/A
3:54 am 03:54 Partly Cloudy 56 13.3 46 7.8 70 70 ESE 6 9 30.12 1020 10 16.0934 N/A
4:54 am 04:54 Partly Cloudy 56 13.3 47 8.3 72 72 SE 7 11 30.13 1020 10 16.0934 N/A
5:54 am 05:54 Cloudy 55 12.8 47 8.3 74 74 S 3 6 30.14 1021 10 16.0934 N/A
6:54 am 06:54 Cloudy 56 13.3 49 9.4 77 77 N N/A 30.15 1021 10 16.0934 N/A
7:54 am 07:54 Cloudy 59 15 52 11.1 78 78 SE 7 11 30.15 1021 10 16.0934 N/A
8:54 am 08:54 Mostly Sunny 62 16.7 54 12.2 75 75 S 8 13 30.15 1021 10 16.0934 N/A
9:54 am 09:54 Mostly Sunny 66 18.9 55 12.8 68 68 SSE 10 17 30.13 1020 10 16.0934 N/A
10:54 am 10:54 Mostly Sunny 70 21.1 55 12.8 59 59 SSE 12 19 30.12 1020 10 16.0934 N/A
11:54 am 11:54 Partly Cloudy 72 22.2 54 12.2 53 53 SE 10 17 30.12 1020 10 16.0934 N/A
12:54 pm 12:54 Sunny 75 23.9 55 12.8 50 50 SSE 15 24 30.11 1020 10 16.0934 N/A
1:54 pm 13:54 Sunny 75 23.9 54 12.2 48 48 S 12 19 30.09 1019 10 16.0934 N/A
2:54 pm 14:54 Sunny 76 24.4 53 11.7 45 45 S 14 22 30.08 1019 10 16.0934 N/A
3:54 pm 15:54 Sunny 76 24.4 54 12.2 47 47 SE 14 22 30.06 1018 10 16.0934 N/A
4:54 pm 16:54 Sunny 76 24.4 55 12.8 48 48 SE 14 22 30.04 1017 10 16.0934 N/A
5:54 pm 17:54 Sunny 75 23.9 54 12.2 48 48 SSE 12 19 30.04 1017 10 16.0934 N/A
6:54 pm 18:54 Sunny 74 23.3 53 11.7 48 48 SSE 13 20 30.04 1017 10 16.0934 N/A
7:54 pm 19:54 Sunny 72 22.2 53 11.7 52 52 SSE 13 20 30.04 1017 10 16.0934 N/A
8:54 pm 20:54 Clear 69 20.6 53 11.7 57 57 SSE 10 17 30.04 1017 10 16.0934 N/A
9:54 pm 21:54 Clear 67 19.4 54 12.2 63 63 SSE 9 15 30.04 1017 10 16.0934 N/A
10:54 pm 22:54 Clear 64 17.8 54 12.2 70 70 SSE 10 17 30.06 1018 10 16.0934 N/A
11:54 pm 23:54 Clear 63 17.2 55 12.8 76 76 SSE 15 24 30.05 1018 10 16.0934 N/A

Powered by AerisWeather